Mitchell, SD

1:02 PM CST on December 06, 2016 (GMT -0600)
Mitchell Municipal

Weather History for KMHE - February, 2013

Change the Weather History Date:

Saturday, February 9, 2013

  Actual Average Record
Temperature  
Mean Temperature 35 °F 22 °F  
Max Temperature 43 °F 32 °F 62 °F (1954)
Min Temperature 27 °F 12 °F -40 °F (1994)
Degree Days  
Heating Degree Days 30 43  
Month to date heating degree days 331 396  
Since 1 July heating degree days 4612 4763  
Cooling Degree Days 0 0  
Month to date cooling degree days 0 0  
Year to date cooling degree days 0 0  
Moisture  
Dew Point 30 °F    
Average Humidity 83    
Maximum Humidity 93    
Minimum Humidity 61    
Precipitation  
Precipitation 0.02 in 0.02 in 0.51 in (1960)
Month to date precipitation 0.09 0.12  
Year to date precipitation 0.31 0.34  
Snow  
Snow 0.00 in - 7.00 in (1972)
Month to date snowfall 0.9  
Since 1 July snowfall 14.1  
Snow Depth T in    
Sea Level Pressure  
Sea Level Pressure 29.83 in    
Wind  
Wind Speed 11 mph (SE)    
Max Wind Speed 21 mph    
Max Gust Speed 26 mph    
Visibility 7 miles    
Events Rain    
T = Trace of Precipitation, MM = Missing Value Source: NWS Daily Summary

Daily Weather History Graph

Daily Weather History Graph

Search for Another Location

Airport or City:

Trip Planner

Search our weather history database for the weather conditions in past years. The results will help you decide how hot, cold, wet, or windy it might be!

Date:

Astronomy

Feb. 09, 2013 Rise Set
Actual Time 7:38 AM CST 5:54 PM CST
Civil Twilight 7:08 AM CST 6:24 PM CST
Nautical Twilight 6:35 AM CST 6:58 PM CST
Astronomical Twilight 6:01 AM CST 7:31 PM CST
Moon 6:51 AM CST (2/9) 5:40 PM CST (2/9)
Length of Visible Light 11h 15m
Length of Day
10h 15m
Waning Crescent, 0% of the Moon is Illuminated
Feb 9
Waning Crescent
Feb 10
New
Feb 17
First Quarter
Feb 25
Full
Mar 4
Last Quarter

Hourly Weather History & Observations

Time (CST) Temp. Windchill Dew Point Humidity Pressure Visibility Wind Dir Wind Speed Gust Speed Precip Events Conditions
12:53 AM 28.9 °F 16.9 °F 25.0 °F 85% 29.99 in 8.0 mi SSE 17.3 mph 24.2 mph N/A   Clear
1:53 AM 28.9 °F 17.3 °F 25.0 °F 85% 29.97 in 9.0 mi SSE 16.1 mph - N/A   Clear
2:53 AM 28.0 °F 17.0 °F 25.0 °F 88% 29.97 in 9.0 mi SSE 13.8 mph - N/A   Clear
3:53 AM 28.0 °F 17.5 °F 24.1 °F 85% 29.96 in 8.0 mi SSE 12.7 mph - N/A   Clear
4:53 AM 27.0 °F 16.7 °F 24.1 °F 89% 29.94 in 7.0 mi SSE 11.5 mph - N/A   Clear
5:53 AM 27.0 °F 17.3 °F 24.1 °F 89% 29.94 in 7.0 mi SSE 10.4 mph - N/A   Clear
6:53 AM 27.0 °F 17.3 °F 24.1 °F 89% 29.95 in 7.0 mi SSE 10.4 mph - N/A   Clear
7:53 AM 27.0 °F 16.7 °F 24.1 °F 89% 29.95 in 4.0 mi SSE 11.5 mph - N/A   Clear
8:53 AM 28.9 °F 20.4 °F 26.1 °F 89% 29.95 in 4.0 mi SSE 9.2 mph - N/A   Partly Cloudy
9:07 AM 30.2 °F 21.9 °F 26.6 °F 86% 29.90 in 4.0 mi SSE 9.2 mph - N/A   Mostly Cloudy
9:53 AM 33.1 °F 24.9 °F 28.9 °F 85% 29.93 in 4.0 mi SSE 10.4 mph - N/A   Overcast
10:53 AM 35.1 °F 25.9 °F 30.0 °F 82% 29.91 in 6.0 mi SSE 13.8 mph - N/A   Haze
11:53 AM 37.0 °F 29.3 °F 30.0 °F 76% 29.89 in 7.0 mi South 11.5 mph - N/A   Overcast
12:53 PM 37.9 °F 33.5 °F 30.0 °F 73% 29.86 in 8.0 mi South 5.8 mph - N/A   Overcast
1:53 PM 39.9 °F 36.7 °F 30.9 °F 70% 29.82 in 9.0 mi SE 4.6 mph - N/A   Overcast
2:48 PM 42.8 °F 37.5 °F 30.2 °F 61% 29.75 in 10.0 mi ESE 9.2 mph - N/A   Overcast
2:53 PM 42.1 °F 36.6 °F 32.0 °F 67% 29.79 in 10.0 mi SE 9.2 mph - N/A   Overcast
3:53 PM 42.1 °F 36.6 °F 32.0 °F 67% 29.78 in 10.0 mi East 9.2 mph - N/A   Overcast
4:53 PM 37.9 °F 30.5 °F 32.0 °F 79% 29.76 in 7.0 mi ENE 11.5 mph - N/A   Clear
5:53 PM 36.0 °F 27.1 °F 30.9 °F 82% 29.75 in 7.0 mi ENE 13.8 mph - N/A   Scattered Clouds
6:53 PM 35.1 °F 26.4 °F 30.9 °F 85% 29.74 in 6.0 mi ENE 12.7 mph - 0.00 in   Overcast
7:53 PM 36.0 °F 29.0 °F 33.1 °F 89% 29.73 in 5.0 mi East 9.2 mph - 0.00 in Rain Light Rain
8:37 PM 37.4 °F 31.4 °F 33.8 °F 87% 29.69 in 4.0 mi East 8.1 mph - 0.02 in Rain Light Rain
8:53 PM 36.0 °F 30.3 °F 34.0 °F 93% 29.72 in 5.0 mi East 6.9 mph - 0.02 in Rain Light Rain
9:17 PM 37.4 °F 34.9 °F 35.6 °F 93% 29.67 in 5.0 mi East 3.5 mph - 0.00 in Rain Light Rain
9:53 PM 37.9 °F 31.5 °F 35.1 °F 89% 29.69 in 6.0 mi ESE 9.2 mph - 0.00 in Rain Light Rain
10:13 PM 37.4 °F 28.9 °F 35.6 °F 93% 29.65 in 7.0 mi SE 13.8 mph - 0.00 in Rain Light Rain
10:53 PM 37.9 °F 30.0 °F 35.1 °F 89% 29.66 in 8.0 mi SE 12.7 mph - 0.00 in Rain Light Rain
11:53 PM 37.0 °F 27.4 °F 33.1 °F 86% 29.64 in 8.0 mi SE 17.3 mph - 0.00 in   Overcast